This is the latest recevied weather packets stored in our database for station/object N5CSU. If no packets are shown the sender has not sent any weather packets the latest 10 day(s).
| Time | Temp. | Humidity | Pressure | Rain* | Wind** | Luminosity | Snow |
|---|---|---|---|---|---|---|---|
| 1777461880 | 17.78° C | 76% | 1013.9 hPa | 0 mm | - | 0 W/m² | - |
| 1777461576 | 17.78° C | 77% | 1013.7 hPa | 0 mm | - | 0 W/m² | - |
| 1777461271 | 17.78° C | 80% | 1013.9 hPa | 0 mm | - | 0 W/m² | - |
| 1777460966 | 17.78° C | 77% | 1013.7 hPa | 0 mm | - | 0 W/m² | - |
| 1777460657 | 17.78° C | 78% | 1013.8 hPa | 0 mm | - | 0 W/m² | - |
| 1777460353 | 17.78° C | 80% | 1014 hPa | 0 mm | - | 0 W/m² | - |
| 1777459747 | 17.78° C | 79% | 1013.8 hPa | 0 mm | - | 0 W/m² | - |
| 1777459141 | 17.78° C | 82% | 1013.5 hPa | 0 mm | - | 0 W/m² | - |
| 1777458837 | 17.78° C | 80% | 1013.2 hPa | 0 mm | - | 0 W/m² | - |
| 1777458533 | 18.33° C | 80% | 1013.4 hPa | 0 mm | - | 0 W/m² | - |
| 1777457925 | 18.33° C | 83% | 1013.6 hPa | 0 mm | - | 0 W/m² | - |
| 1777457623 | 18.89° C | 86% | 1013.5 hPa | 0 mm | - | 0 W/m² | - |
| 1777457317 | 18.89° C | 83% | 1013.6 hPa | 0 mm | - | 0 W/m² | - |
| 1777457012 | 18.33° C | 84% | 1013.4 hPa | 0 mm | - | 0 W/m² | - |
| 1777456709 | 18.33° C | 85% | 1013.5 hPa | 0 mm | - | 0 W/m² | - |
| 1777456402 | 18.89° C | 87% | 1013.3 hPa | 0 mm | - | 0 W/m² | - |
| 1777455492 | 18.89° C | 82% | 1013.5 hPa | 0 mm | - | 0 W/m² | - |
| 1777455188 | 19.44° C | 83% | 1013.3 hPa | 0 mm | - | 0 W/m² | - |
| 1777454886 | 19.44° C | 83% | 1013.3 hPa | 0 mm | - | 0 W/m² | - |
| 1777454582 | 19.44° C | 83% | 1013.2 hPa | 0 mm | - | 0 W/m² | - |
| 1777454278 | 19.44° C | 82% | 1013.1 hPa | 0 mm | - | 0 W/m² | - |
| 1777453975 | 19.44° C | 83% | 1013.1 hPa | 0 mm | - | 0 W/m² | - |
| 1777453673 | 19.44° C | 82% | 1013.1 hPa | 0 mm | - | 0 W/m² | - |
| 1777453369 | 19.44° C | 83% | 1013.3 hPa | 0 mm | - | 0 W/m² | - |
| 1777453066 | 20° C | 83% | 1013.6 hPa | 0 mm | - | 0 W/m² | - |
* Rain latest hour (hover to see other rain measurements)
** Current wind speed in m/s (hover to see current wind gust speed)